Amsterdam, Netherlands

9:32 AM CEST on October 15, 2019 (GMT +0200)
Schiphol

Weather History for EHAM - August, 2019

Change the Weather History Date:

Monday, August 5, 2019

  Actual Average Record
Temperature  
Mean Temperature 69 °F -  
Max Temperature 74 °F 68 °F 83 °F (2013)
Min Temperature 64 °F 54 °F 53 °F (1997)
Cooling Degree Days 4    
Growing Degree Days 19 (Base 50)    
Moisture  
Dew Point 60 °F    
Average Humidity 71    
Maximum Humidity 88    
Minimum Humidity 47    
Precipitation  
Precipitation 0.00 in - - ()
Sea Level Pressure  
Sea Level Pressure 29.83 in    
Wind  
Wind Speed 9 mph ()    
Max Wind Speed 22 mph    
Max Gust Speed -    
Visibility 8.3 miles    
Events Rain    
Averages and records for this station are not official NWS values.
T = Trace of Precipitation, MM = Missing Value Source: Averaged Metar Reports

Daily Weather History Graph

Daily Weather History Graph

Search for Another Location

Airport or City:

Astronomy

Aug. 05, 2019 Rise Set
Actual Time 6:07 AM CEST 9:25 PM CEST
Civil Twilight 5:26 AM CEST 10:06 PM CEST
Nautical Twilight 4:31 AM CEST 11:00 PM CEST
Astronomical Twilight 3:15 AM CEST 12:14 AM CEST
Moon 11:40 AM CEST (8/5) 11:48 PM CEST (8/5)
Length of Visible Light 16h 39m
Length of Day
15h 18m
Waxing Crescent, 25% of the Moon is Illuminated
Aug 5
Waxing Crescent
Aug 7
First Quarter
Aug 15
Full
Aug 23
Last Quarter
Aug 30
New

Hourly Weather History & Observations

Time (CEST) Temp. Dew Point Humidity Pressure Visibility Wind Dir Wind Speed Gust Speed Precip Events Conditions
12:00 AM 68 °F 60 °F 70% 29.90 in 28 mi East 4.5 mph - -   Partly Cloudy
12:25 AM 68.0 °F 60.8 °F 78% 29.89 in 6.2 mi East 4.6 mph - N/A   Partly Cloudy
12:55 AM 68.0 °F 59.0 °F 73% 29.86 in - East 9.2 mph - N/A   Clear
1:25 AM 69.8 °F 59.0 °F 68% 29.86 in - East 11.5 mph - N/A   Clear
1:55 AM 68.0 °F 59.0 °F 73% 29.86 in - East 6.9 mph - N/A   Clear
2:00 AM 69 °F 58 °F 61% 29.88 in 28 mi ESE 6.7 mph - -   Partly Cloudy
2:25 AM 68.0 °F 59.0 °F 73% 29.86 in - ESE 5.8 mph - N/A   Clear
2:55 AM 68.0 °F 59.0 °F 73% 29.86 in - Variable 1.2 mph - N/A   Clear
3:00 AM 67 °F 59 °F 67% 29.87 in 28 mi ENE 2.2 mph - -   Partly Cloudy
3:25 AM 66.2 °F 60.8 °F 83% 29.86 in - East 3.5 mph - N/A   Clear
3:55 AM 66.2 °F 59.0 °F 78% 29.83 in - ENE 4.6 mph - N/A   Clear
4:25 AM 66.2 °F 60.8 °F 83% 29.83 in - ESE 3.5 mph - N/A   Clear
4:55 AM 64.4 °F 60.8 °F 88% 29.83 in - ENE 4.6 mph - N/A   Clear
5:25 AM 66.2 °F 59.0 °F 78% 29.80 in - East 5.8 mph - N/A   Clear
5:55 AM 66.2 °F 59.0 °F 78% 29.80 in - East 3.5 mph - N/A   Clear
6:00 AM 65 °F 59 °F 74% 29.82 in 22 mi East 2.2 mph - - Rain Rain
6:25 AM 64.4 °F 59.0 °F 83% 29.80 in - ENE 4.6 mph - N/A   Clear
7:25 AM 66.2 °F 59.0 °F 78% 29.80 in - East 3.5 mph - N/A   Clear
7:55 AM 66.2 °F 59.0 °F 78% 29.80 in - SE 5.8 mph - N/A   Clear
8:25 AM 68.0 °F 60.8 °F 78% 29.80 in - SSE 6.9 mph - N/A   Clear
8:55 AM 68.0 °F 62.6 °F 83% 29.80 in 6.2 mi SSW 10.4 mph - N/A   Partly Cloudy
9:00 AM 68 °F 63 °F 78% 29.82 in 5 mi SW 13.4 mph - -   Light Haze
9:25 AM 69.8 °F 64.4 °F 83% 29.80 in 6.2 mi SW 13.8 mph - N/A   Partly Cloudy
9:55 AM 69.8 °F 62.6 °F 78% 29.80 in 6.2 mi WSW 17.3 mph - N/A   Partly Cloudy
10:00 AM 70 °F 63 °F 72% 29.81 in 9 mi WSW 15.7 mph - -   Partly Cloudy
10:25 AM 69.8 °F 62.6 °F 78% 29.80 in 6.2 mi West 18.4 mph - N/A   Scattered Clouds
10:55 AM 69.8 °F 62.6 °F 78% 29.83 in 6.2 mi WSW 16.1 mph - N/A   Scattered Clouds
11:25 AM 69.8 °F 62.6 °F 78% 29.83 in 6.2 mi WSW 16.1 mph - N/A   Scattered Clouds
11:55 AM 71.6 °F 62.6 °F 73% 29.80 in 6.2 mi WSW 15.0 mph - N/A   Scattered Clouds
12:00 PM 72 °F 62 °F 63% 29.83 in 13 mi WSW 17.9 mph - -   Partly Cloudy
12:25 PM 71.6 °F 60.8 °F 69% 29.83 in 6.2 mi WSW 17.3 mph - N/A   Scattered Clouds
12:55 PM 71.6 °F 60.8 °F 69% 29.83 in 6.2 mi WSW 18.4 mph - N/A   Scattered Clouds
1:00 PM 71 °F 61 °F 62% 29.83 in 19 mi WSW 15.7 mph - -   Partly Cloudy
1:25 PM 71.6 °F 60.8 °F 69% 29.83 in 6.2 mi WSW 17.3 mph - N/A   Partly Cloudy
1:55 PM 71.6 °F 59.0 °F 64% 29.83 in 6.2 mi WSW 18.4 mph - N/A   Partly Cloudy
2:00 PM 73 °F 58 °F 49% 29.83 in 25 mi WSW 17.9 mph - -   Partly Cloudy
2:25 PM 73.4 °F 59.0 °F 61% 29.83 in 6.2 mi WSW 17.3 mph - N/A   Partly Cloudy
2:55 PM 71.6 °F 59.0 °F 64% 29.83 in 6.2 mi WSW 17.3 mph - N/A   Partly Cloudy
3:00 PM 71 °F 58 °F 56% 29.84 in 19 mi West 17.9 mph - -   Partly Cloudy
3:25 PM 73.4 °F 59.0 °F 61% 29.83 in 6.2 mi WSW 20.7 mph - N/A   Partly Cloudy
3:55 PM 73.4 °F 57.2 °F 57% 29.83 in 6.2 mi WSW 21.9 mph - N/A   Partly Cloudy
4:00 PM 73 °F 57 °F 47% 29.85 in 19 mi WSW 17.9 mph - -   Partly Cloudy
4:25 PM 73.4 °F 57.2 °F 57% 29.83 in 6.2 mi WSW 16.1 mph - N/A   Partly Cloudy
4:55 PM 73.4 °F 57.2 °F 57% 29.83 in 6.2 mi WSW 16.1 mph - N/A   Partly Cloudy
5:00 PM 72 °F 58 °F 52% 29.83 in 19 mi West 15.7 mph - -   Partly Cloudy
5:25 PM 71.6 °F 59.0 °F 64% 29.83 in 6.2 mi West 16.1 mph - N/A   Partly Cloudy
5:55 PM 71.6 °F 59.0 °F 64% 29.83 in 6.2 mi WSW 15.0 mph - N/A   Mostly Cloudy
6:25 PM 69.8 °F 59.0 °F 68% 29.83 in 6.2 mi WSW 17.3 mph - N/A   Mostly Cloudy
6:55 PM 69.8 °F 60.8 °F 73% 29.80 in 6.2 mi WSW 13.8 mph - N/A   Scattered Clouds
7:00 PM 70 °F 60 °F 62% 29.82 in 17 mi WSW 15.7 mph - -   Partly Cloudy
7:25 PM 69.8 °F 60.8 °F 73% 29.80 in 6.2 mi WSW 13.8 mph - N/A   Scattered Clouds
7:55 PM 69.8 °F 60.8 °F 73% 29.80 in 6.2 mi WSW 12.7 mph - N/A   Scattered Clouds
8:00 PM 70 °F 62 °F 68% 29.82 in 16 mi WSW 13.4 mph - -   Partly Cloudy
8:25 PM 69.8 °F 60.8 °F 73% 29.80 in 6.2 mi WSW 17.3 mph - N/A   Partly Cloudy
8:55 PM 68.0 °F 59.0 °F 73% 29.80 in 6.2 mi WSW 16.1 mph - N/A   Partly Cloudy
9:00 PM 69 °F 60 °F 64% 29.82 in 22 mi WSW 13.4 mph - -   Scattered Clouds
9:25 PM 68.0 °F 59.0 °F 73% 29.80 in 6.2 mi WSW 13.8 mph - N/A   Partly Cloudy
9:55 PM 68.0 °F 59.0 °F 73% 29.80 in - SW 13.8 mph - N/A   Clear
10:25 PM 68.0 °F 59.0 °F 73% 29.80 in - WSW 12.7 mph - N/A   Clear
10:55 PM 68.0 °F 59.0 °F 73% 29.80 in - WSW 12.7 mph - N/A   Clear
11:25 PM 68.0 °F 60.8 °F 78% 29.80 in 6.2 mi WSW 12.7 mph - N/A   Partly Cloudy
11:55 PM 66.2 °F 60.8 °F 83% 29.80 in 6.2 mi WSW 11.5 mph - N/A   Partly Cloudy